Weather in Pazyal

Russia / Udmurt Republic     56˚37′32″N   52˚10′41″E
temp.,
°C
wind,
m/s
gust,
m/s
humid.,
%
clouds,
%
prec.,
mm/h
press.,
hPa
HPBL,
m
16 january, sat
sat1601:00−13˚ene489895 0.0 1010151
04:00−12˚ene5119698 0.1 1006302
07:00−9˚e61195100 2.3 1002529
10:00−8˚e61194100 4.4 999571
13:00−8˚ese5995100 0.9 998463
16:00−7˚se3696100 1.2 997174
19:00−11˚ssw61292100 0.3 997475
22:00−11˚ssw51192100 0.4 998558
17 january, sun
sun1701:00−12˚ssw5119398 0.1 997527
04:00−13˚ssw5109498 0.4 997503
07:00−14˚wsw51195100 0.3 998538
10:00−14˚w61193100 0.6 1001500
13:00−14˚w6992100 0.1 1004588
16:00−16˚w4794100 0.1 1008198
19:00−20˚wnw3410097 0.0 101147
22:00−23˚wnw239963 0.1 101421
18 january, mon
mon1801:00−25˚w229917 0.0 101520
04:00−27˚w1210034 0.0 101720
07:00−27˚wsw229980 0.0 101719
10:00−26˚sw229777 0.0 101826
13:00−22˚wsw239498 0.0 1018195
16:00−23˚w129777 0.0 101820
19:00−26˚wsw111000 0.0 101820
22:00−25˚wnw119750 0.0 101820
19 january, tue
tue1901:00−24˚nne2296100 0.0 101823
04:00−24˚ne2296100 0.0 101723
07:00−23˚ne3695100 0.0 1017143
10:00−22˚ne3695100 0.0 1017238
13:00−19˚ne4793100 0.0 1015309
16:00−19˚nne41091100 0.0 1014338
19:00−20˚ne41089100 0.0 1013331
22:00−20˚ne41093100 0.0 1013330
20 january, wed
wed2001:00−20˚ne41095100 0.0 1013322
04:00−19˚ne4993100 0.0 1013310
07:00−21˚ne3795100 0.0 1015174
10:00−22˚ne369590 0.0 1016133
13:00−19˚ne249248 0.0 1018254
16:00−21˚ne229726 0.0 101920
19:00−25˚e111000 0.0 102120
22:00−26˚ssw111000 0.0 102220